Find CAT 04/Thesee

NORAD ID: 13011 Int'l Des: 1981-122 Owner: ESA Country: I-ESA operational
MEOELLIPTICALHEO_ELLIPTICAL

Live Position

Loading 3D Globe...

About CAT 04/Thesee

Description loading...

Upcoming Passes

Passes for default location (London). Set your location on the main map for personalized predictions.

Altitude History

Loading altitude history...

Two-Line Element Set

1 13011U 81122B 26106.87715583 .00003387 00000-0 53943-3 0 9997
2 13011 10.3881 168.4392 6525347 256.6970 27.7995 3.29477028358848
Epoch: Apr 16, 2026 • Age: 19 hours

Current Status

Altitude 21130.2 km
Velocity 2.84 km/s
Sub-Earth Point 10.24°N, 179.47°E
Launch Date Dec 20, 1981
Age 44.3 years
Type other

Technical Details

Classification Payload
Mass 661.00 kg
Dry Mass 661.00 kg
Total Mass 661.00 kg
Length 2.50 m
Diameter 1.50 m
Span 4.00 m
Shape Cyl + Cone
Manufacturer AERIT/CNEST
Bus Type CAT
Phase Status In Orbit
Owner/State ESA/I-ESA

Most Searched